Weather History for KIXD - October, 2012

Change the Weather History Date:

Monday, October 8, 2012

  Actual Average Record
Temperature  
Mean Temperature 48 °F -  
Max Temperature 62 °F 68 °F 87 °F (2010)
Min Temperature 34 °F 46 °F 25 °F (2000)
Degree Days  
Heating Degree Days 18    
Moisture  
Dew Point 32 °F    
Average Humidity 57    
Maximum Humidity 79    
Minimum Humidity 35    
Precipitation  
Precipitation 0.00 in - - ()
Sea Level Pressure  
Sea Level Pressure 30.07 in    
Wind  
Wind Speed 10 mph (South)    
Max Wind Speed 21 mph    
Max Gust Speed 29 mph    
Visibility 10 miles    
Events      
Averages and records for this station are not official NWS values.
T = Trace of Precipitation, MM = Missing Value Source: NWS Daily Summary

Daily Weather History Graph

Daily Weather History Graph

Search for Another Location

Airport or City:

Trip Planner

Search our weather history database for the weather conditions in past years. The results will help you decide how hot, cold, wet, or windy it might be!

Date:

Astronomy

Oct. 08, 2012 Rise Set
Actual Time 7:22 AM CDT 6:50 PM CDT
Civil Twilight 6:55 AM CDT 7:17 PM CDT
Nautical Twilight 6:25 AM CDT 7:48 PM CDT
Astronomical Twilight 5:54 AM CDT 8:18 PM CDT
Moon 12:06 AM CDT (10/8) 2:37 PM CDT (10/8)
Length of Visible Light 12h 21m
Length of Day
11h 28m
Last Quarter, 46% of the Moon is Illuminated
Oct 8
Last Quarter
Oct 15
New
Oct 21
First Quarter
Oct 29
Full
Nov 6
Last Quarter

Hourly Weather History & Observations

Time (CDT) Temp. Windchill Dew Point Humidity Pressure Visibility Wind Dir Wind Speed Gust Speed Precip Events Conditions
12:53 AM 37.0 °F 31.6 °F 28.0 °F 70% 30.16 in 10.0 mi South 6.9 mph - N/A   Clear
1:53 AM 37.0 °F 31.6 °F 28.0 °F 70% 30.17 in 10.0 mi SSW 6.9 mph - N/A   Clear
2:53 AM 37.0 °F 31.0 °F 28.0 °F 70% 30.16 in 10.0 mi South 8.1 mph - N/A   Clear
3:53 AM 34.0 °F 28.8 °F 28.0 °F 79% 30.14 in 10.0 mi South 5.8 mph - N/A   Clear
4:53 AM 34.0 °F 28.0 °F 28.0 °F 79% 30.14 in 10.0 mi South 6.9 mph - N/A   Clear
5:53 AM 34.0 °F 28.0 °F 28.0 °F 79% 30.14 in 10.0 mi South 6.9 mph - N/A   Clear
6:53 AM 35.1 °F 27.9 °F 28.9 °F 78% 30.14 in 10.0 mi South 9.2 mph - N/A   Clear
7:53 AM 36.0 °F 30.3 °F 30.0 °F 79% 30.15 in 10.0 mi South 6.9 mph - N/A   Clear
8:53 AM 41.0 °F 35.2 °F 32.0 °F 70% 30.15 in 10.0 mi South 9.2 mph - N/A   Clear
9:53 AM 46.9 °F - 33.1 °F 59% 30.14 in 10.0 mi SSW 12.7 mph - N/A   Clear
10:53 AM 53.1 °F - 32.0 °F 45% 30.12 in 10.0 mi South 18.4 mph - N/A   Clear
11:53 AM 55.9 °F - 30.9 °F 39% 30.11 in 10.0 mi SSW 19.6 mph 26.5 mph N/A   Clear
12:53 PM 57.9 °F - 32.0 °F 37% 30.09 in 10.0 mi SSW 18.4 mph 27.6 mph N/A   Clear
1:53 PM 61.0 °F - 33.1 °F 35% 30.06 in 10.0 mi SSW 16.1 mph 26.5 mph N/A   Clear
2:53 PM 61.0 °F - 33.1 °F 35% 30.02 in 10.0 mi South 18.4 mph 28.8 mph N/A   Clear
3:53 PM 61.0 °F - 35.1 °F 38% 30.00 in 10.0 mi South 12.7 mph 23.0 mph N/A   Clear
4:53 PM 61.0 °F - 34.0 °F 36% 29.99 in 10.0 mi South 20.7 mph 27.6 mph N/A   Clear
5:53 PM 59.0 °F - 34.0 °F 39% 29.98 in 10.0 mi South 15.0 mph 21.9 mph N/A   Clear
6:53 PM 55.9 °F - 35.1 °F 45% 29.98 in 10.0 mi South 9.2 mph - N/A   Clear
7:53 PM 53.1 °F - 35.1 °F 50% 29.99 in 10.0 mi South 11.5 mph - N/A   Clear
8:53 PM 52.0 °F - 35.1 °F 53% 29.99 in 10.0 mi South 11.5 mph - N/A   Clear
9:53 PM 51.1 °F - 35.1 °F 54% 30.00 in 10.0 mi South 11.5 mph - N/A   Clear
10:53 PM 48.9 °F - 37.0 °F 64% 29.99 in 10.0 mi South 12.7 mph - N/A   Clear
11:53 PM 48.0 °F - 37.0 °F 66% 29.98 in 10.0 mi South 12.7 mph - N/A   Clear